Destin, FL

2:04 AM CDT on August 24, 2016 (GMT -0500)
Destin-Fort Walton Beach

Weather History for KDTS - December, 2012

Change the Weather History Date:

Thursday, December 20, 2012

  Actual Average Record
Temperature  
Mean Temperature 62 °F -  
Max Temperature 73 °F 58 °F 73 °F (2012)
Min Temperature 48 °F 42 °F 21 °F (2000)
Degree Days  
Heating Degree Days 3    
Growing Degree Days 12 (Base 50)    
Moisture  
Dew Point 57 °F    
Average Humidity 72    
Maximum Humidity 94    
Minimum Humidity 31    
Precipitation  
Precipitation 0.54 in - - ()
Sea Level Pressure  
Sea Level Pressure 29.92 in    
Wind  
Wind Speed 12 mph (SSW)    
Max Wind Speed 18 mph    
Max Gust Speed 36 mph    
Visibility 8 miles    
Events Fog , Rain , Thunderstorm    
Averages and records for this station are not official NWS values.
T = Trace of Precipitation, MM = Missing Value Source: NWS Daily Summary

Daily Weather History Graph

Daily Weather History Graph

Search for Another Location

Airport or City:

Trip Planner

Search our weather history database for the weather conditions in past years. The results will help you decide how hot, cold, wet, or windy it might be!

Date:

Astronomy

Dec. 20, 2012 Rise Set
Actual Time 6:38 AM CST 4:49 PM CST
Civil Twilight 6:11 AM CST 5:15 PM CST
Nautical Twilight 5:41 AM CST 5:45 PM CST
Astronomical Twilight 5:12 AM CST 6:15 PM CST
Moon 11:47 AM CST (12/20) No Moon Set
Length of Visible Light 11h 04m
Length of Day
10h 11m
First Quarter, 55% of the Moon is Illuminated
Dec 20
First Quarter
Dec 28
Full
Jan 4
Last Quarter
Jan 11
New
Jan 18
First Quarter

Hourly Weather History & Observations

Time (CST) Temp. Dew Point Humidity Pressure Visibility Wind Dir Wind Speed Gust Speed Precip Events Conditions
12:53 AM 69.1 °F 63.0 °F 81% 29.97 in 10.0 mi SE 11.5 mph - N/A   Overcast
1:53 AM 70.0 °F 64.9 °F 84% 29.96 in 10.0 mi SE 10.4 mph - N/A   Overcast
2:41 AM 69.8 °F 64.4 °F 83% 29.95 in 10.0 mi ESE 9.2 mph - N/A   Overcast
2:53 AM 70.0 °F 64.9 °F 84% 29.95 in 10.0 mi SE 10.4 mph - N/A   Overcast
3:53 AM 70.0 °F 66.0 °F 87% 29.94 in 10.0 mi SE 11.5 mph - N/A   Overcast
4:53 AM 71.1 °F 66.9 °F 87% 29.93 in 10.0 mi SSE 10.4 mph 18.4 mph N/A   Overcast
5:43 AM 71.6 °F 66.2 °F 83% 29.93 in 10.0 mi SSE 9.2 mph - N/A   Overcast
5:53 AM 71.1 °F 66.9 °F 87% 29.93 in 10.0 mi SSE 9.2 mph - N/A   Overcast
6:15 AM 71.6 °F 68.0 °F 88% 29.93 in 10.0 mi SSE 10.4 mph 19.6 mph N/A   Overcast
6:40 AM 71.6 °F 66.2 °F 83% 29.92 in 10.0 mi SSE 12.7 mph 21.9 mph N/A   Overcast
6:53 AM 72.0 °F 66.9 °F 84% 29.92 in 10.0 mi SSE 13.8 mph 21.9 mph N/A   Overcast
7:53 AM 72.0 °F 68.0 °F 87% 29.92 in 9.0 mi South 11.5 mph 21.9 mph N/A   Overcast
8:53 AM 73.0 °F 68.0 °F 84% 29.90 in 10.0 mi South 12.7 mph 24.2 mph N/A   Overcast
9:53 AM 73.9 °F 68.0 °F 82% 29.88 in 10.0 mi South 13.8 mph 27.6 mph N/A   Overcast
10:53 AM 73.0 °F 68.0 °F 84% 29.84 in 6.0 mi South 18.4 mph 29.9 mph 0.01 in Rain Light Rain
11:00 AM 71.6 °F 68.0 °F 88% 29.84 in 1.5 mi South 17.3 mph 29.9 mph 0.09 in Rain Rain
11:06 AM 71.6 °F 69.8 °F 94% 29.85 in 0.8 mi SSW 9.2 mph 25.3 mph 0.19 in Rain Heavy Rain
11:17 AM 71.6 °F 69.8 °F 94% 29.85 in 0.5 mi SSW 13.8 mph 23.0 mph 0.47 in Fog , Rain Heavy Rain
11:27 AM 69.8 °F 66.2 °F 88% 29.84 in 1.2 mi SSW 13.8 mph 28.8 mph 0.51 in Rain , Thunderstorm Rain
11:40 AM 69.8 °F 64.4 °F 83% 29.83 in 2.0 mi SSW 18.4 mph 35.7 mph 0.53 in Rain Light Rain
11:49 AM 71.6 °F 64.4 °F 78% 29.82 in 5.0 mi SSW 13.8 mph 28.8 mph 0.53 in Rain Light Rain
11:53 AM 71.1 °F 66.0 °F 84% 29.82 in 7.0 mi SSW 9.2 mph 28.8 mph 0.53 in   Mostly Cloudy
12:20 PM 71.6 °F 66.2 °F 83% 29.82 in 7.0 mi SW 13.8 mph 21.9 mph 0.00 in   Mostly Cloudy
12:39 PM 71.6 °F 66.2 °F 83% 29.81 in 6.0 mi WSW 12.7 mph 20.7 mph 0.00 in Rain Light Rain
12:53 PM 73.0 °F 68.0 °F 84% 29.79 in 6.0 mi WSW 10.4 mph 19.6 mph 0.00 in   Haze
1:02 PM 73.4 °F 66.2 °F 78% 29.79 in 8.0 mi WSW 10.4 mph 18.4 mph N/A   Scattered Clouds
1:53 PM 70.0 °F 57.0 °F 63% 29.81 in 10.0 mi NW 6.9 mph - N/A   Partly Cloudy
2:53 PM 69.1 °F 48.0 °F 47% 29.83 in 10.0 mi Variable 4.6 mph - N/A   Clear
3:53 PM 66.9 °F 37.9 °F 34% 29.87 in 10.0 mi NW 6.9 mph - N/A   Clear
4:53 PM 64.0 °F 37.9 °F 38% 29.91 in 10.0 mi NW 8.1 mph - N/A   Clear
5:53 PM 62.1 °F 30.9 °F 31% 29.96 in 10.0 mi NW 9.2 mph 19.6 mph N/A   Clear
6:53 PM 57.9 °F 28.9 °F 33% 30.02 in 10.0 mi NW 16.1 mph 27.6 mph N/A   Clear
7:53 PM 55.0 °F 30.0 °F 38% 30.07 in 10.0 mi NW 18.4 mph 28.8 mph N/A   Clear
8:53 PM 53.1 °F 32.0 °F 45% 30.11 in 10.0 mi NW 12.7 mph 21.9 mph N/A   Clear
9:53 PM 51.1 °F 30.9 °F 46% 30.14 in 10.0 mi NW 12.7 mph 31.1 mph N/A   Clear
10:53 PM 51.1 °F 30.9 °F 46% 30.15 in 10.0 mi NW 15.0 mph 26.5 mph N/A   Clear
11:53 PM 48.9 °F 30.0 °F 48% 30.16 in 10.0 mi NW 10.4 mph 23.0 mph N/A   Clear